Voltar ao catálogo

BEIDOU IGSO-6

AtivoNavegaçãoGEO
NORAD 41434·PAYLOAD·🇨🇳 China

Lançado Mar 29, 2016 de Xichang Satellite Launch Center

Loading…

TLE

AtualizadoSource: Space-Track

Época: Sep 13, 2026, 21:28 UTC

1 41434U 16021A   26256.89505284 -.00000162  00000-0  00000-0 0  9998
2 41434  60.3572  37.1627 0061757 228.1989 146.1166  1.00282369 38379

Acompanhe BEIDOU IGSO-6 em tempo real com AllMySat

Download on the App Store